Regional Weather Roundup
Issued by NWS

Home | Current Version | Previous Version | Text Only | Print | Product List | Glossary Off
Versions: 1 2 3 4 5 6 7 8 9 10 11 12 13 14 15 16 17 18 19 20 21 22 23 24 25 26 27 28 29 30 31 32 33 34 35 36 37 38 39 40 41 42 43 44 45 46 47 48 49 50

000
ASUS43 KDTX 302310
RWRMI
MICHIGAN HOURLY REGIONAL WEATHER ROUNDUP
NATIONAL WEATHER SERVICE DETROIT/PONTIAC MI
600 PM EST FRI JAN 30 2015

NOTE: "FAIR" INDICATES FEW OR NO CLOUDS BELOW 12,000 FEET WITH NO
SIGNIFICANT WEATHER AND/OR OBSTRUCTION TO VISIBILITY.

MIZ047>049-052>055-059>063-066>070-074>076-081>083-310000-
SOUTHEAST LOWER MICHIGAN

CITY           SKY/WX    TMP DP  RH WIND       PRES   REMARKS
ADRIAN         CLEAR     20   7  57 CALM      30.43F
ALMA           CLEAR     18   8  63 CALM      30.39F
ANN ARBOR      CLEAR     18   5  57 NW5       30.41F
BAD AXE        CLEAR     10   0  63 CALM      30.41F
DETROIT CITY   CLEAR     19   1  45 W3        30.44S
DETROIT        PTCLDY    19   3  49 NW7       30.44S
FLINT          CLEAR     16   3  56 W6        30.41F
GROSSE ILE     CLEAR     18   1  49 NW3       30.43S
HILLSDALE      CLEAR     19   7  58 CALM      30.38F
HOWELL         CLEAR     18   5  57 CALM      30.40S

CITY           SKY/WX    TMP DP  RH WIND       PRES   REMARKS
JACKSON        CLEAR     18   7  62 CALM      30.40F
LAMBERTVILLE   CLEAR     23   7  50 CALM      30.44S
LANSING        CLEAR     19   7  59 CALM      30.41F
LAPEER         NOT AVBL
MASON          CLEAR     18   7  63 CALM      30.40F
MONROE         CLEAR     19   7  58 NW3       30.42F
MT. CLEMENS    PTCLDY    14   0  53 N5        30.42S
PONTIAC        PTCLDY    15   2  56 W6        30.39F
PORT HOPE        N/A     10   0  63 SW5       30.40F
PORT HURON     CLEAR     10  -2  56 CALM      30.44S
TRI CITIES     CLEAR     18   5  57 W5        30.42S
YPSILANTI      CLEAR     20   4  50 N7        30.43F
$$
MIZ043>046-050>051-056>058-064>065-071>073-077>080-310000-
SOUTHWEST LOWER MICHIGAN

CITY           SKY/WX    TMP DP  RH WIND       PRES   REMARKS
BATTLE CREEK   CLEAR     21   8  57 N3        30.40F
BENTON HARBOR  CLOUDY    23  15  71 W5        30.44F
BIG RAPIDS     CLEAR     19   8  64 W7        30.37S
COLDWATER      CLEAR     20   8  59 CALM      30.40F
HOLLAND        CLOUDY    24  13  62 VRB3      30.43F
GRAND RAPIDS   PTCLDY    21   9  59 W8        30.41F
KALAMAZOO      CLEAR     22  11  62 W7        30.41F
MARSHALL       CLEAR     18   7  62 CALM      30.40F
MUSKEGON       MOCLDY    21  11  65 NW5       30.43F
$$
MIZ016>042-310000-
NORTHERN LOWER MICHIGAN

CITY           SKY/WX    TMP DP  RH WIND       PRES   REMARKS
ALPENA         CLEAR     10   0  63 N5        30.39F
BEAVER ISLAND  CLOUDY    17   8  67 CALM      30.38F
CADILLAC       CLEAR     15   6  67 W6        30.33S
CHARLEVOIX     CLOUDY    17  11  78 W3        30.41F
FRANKFORT      MOCLDY    18  10  71 W3        30.41S
GAYLORD        CLOUDY    13   4  67 W7        30.33S
GRAYLING       FLURRIES  16   6  67 W3        30.35F
HARBOR SPRINGS CLOUDY    14   6  71 CALM      30.38F
HOUGHTON LAKE  CLOUDY    15   5  64 W5        30.35F
MANISTEE       MOCLDY    18   7  62 W3        30.42S
OSCODA         CLEAR     14  -1  50 CALM      30.39S
PELLSTON       CLOUDY    16   6  65 W7        30.38F
TRAVERSE CITY  FLURRIES  18   9  68 W5        30.39F
$$
MIZ007>008-015-310000-
EASTERN UPPER MICHIGAN

CITY           SKY/WX    TMP DP  RH WIND       PRES   REMARKS
KINROSS        CLOUDY    12   3  67 CALM      30.36S
MACKINAC ISLAN CLOUDY    14   8  77 SW8       30.36F
NEWBERRY       CLOUDY    10   7  88 SW8       30.35S
S. S. MARIE    CLOUDY    10   1  67 CALM      30.36F
$$
MIZ004>006-011>014-085-310000-
CENTRAL UPPER MICHIGAN

CITY           SKY/WX    TMP DP  RH WIND       PRES   REMARKS
MANISTIQUE     CLOUDY    15   6  66 W5        30.37F
ESCANABA       CLOUDY    18   7  62 S7        30.38F
MENOMINEE      CLOUDY    18   7  62 SW7       30.38F
SAWYER-GWINN   CLOUDY    16   3  57 SW9       30.30F
$$
MIZ001>003-009>011-084-310000-
WESTERN UPPER MICHIGAN

CITY           SKY/WX    TMP DP  RH WIND       PRES   REMARKS
IRON MOUNTAIN  CLOUDY    18   5  57 S6        30.30F
HOUGHTON       CLOUDY    15   7  70 W7        30.27F
COPPER HARBOR    N/A     15   6  67 W3        30.31F
IRONWOOD       PTCLDY    16   9  73 S7        30.24F
$$

ABBREVIATIONS USED IN REMARKS
   TC - TEMPERATURE IN CELSIUS
  WCI - WIND CHILL INDEX
   HX - HEAT INDEX
  VSB - VISIBILITY



USA.gov is the U.S. government's official web portal to all federal, state and local government web resources and services.